Location: North Hills
(40.7809°N, 73.6765°W)
Time: 04:50:01
(UTC+00:00)

Daily predictions for brighter satellites

Satellite Brightness Start Highest point End
(mag) Time Altitude Azimuth Time Altitude Azimuth Time Altitude Azimuth
CZ-2C R/B 3.0 00:36:47 10° NNE 00:42:13 50° E 00:47:38 10° S
Cosmos 1666 3.3 00:41:56 10° NNW 00:45:45 62° W 00:49:31 10° S
SL-08 RB Rocket 3.8 00:41:31 10° SSE 00:46:08 84° ENE 00:50:44 10° N
STARLINK-1206 3.6 00:43:18 10° SW 00:47:26 77° SE 00:51:35 10° NE
STARLINK-1159 3.7 00:44:59 10° NW 00:49:09 83° NE 00:53:17 10° SE
Cosmos 1975 4.3 00:46:11 10° NNE 00:49:25 22° ENE 00:52:36 10° SE
NOSS 2-3 (D) 3.7 00:47:17 10° SSW 00:51:19 51° ESE 00:55:53 10° NE
STARLINK-1205 3.6 00:48:17 10° SW 00:52:25 84° SE 00:56:34 10° NE
Abrixas rocket 4.2 00:50:44 10° WNW 00:53:18 26° NNW 00:55:52 10° NE
Okean 1 3.6 00:50:15 10° S 00:54:09 50° E 00:58:05 10° NNE
STARLINK-1171 3.6 00:50:01 10° NW 00:54:10 90° NNE 00:58:18 10° SE
Meteor 1-4 Rocket 3.8 00:54:08 10° SE 00:56:52 22° E 00:59:36 10° NE
STARLINK-1218 3.6 00:53:14 10° SW 00:57:22 88° NNW 01:01:32 10° NE
SPOT 3 Rocket 3.6 00:53:24 10° SSE 00:58:28 68° ENE 01:03:36 10° N
STARLINK-1155 3.6 00:54:57 10° NW 00:59:07 83° SW 01:03:10 10° SE
USA 186 3.3 00:57:33 10° SSW 00:59:39 26° W 01:01:53 10° NW
Cosmos 1515 4.4 00:57:36 10° SSE 01:01:03 33° E 01:04:31 10° NNE
USA 229 DEB 4.0 00:55:30 10° SW 01:01:58 72° NW 01:08:48 10° NNE
USA 229 4.0 00:55:38 10° SW 01:02:05 72° NW 01:08:54 10° NNE
STARLINK-1254 3.7 00:58:13 10° SW 01:02:21 81° NW 01:06:31 10° NE
ISS -1.0 01:00:32 10° NNW 01:02:25 14° N 01:04:19 10° NE
STARLINK-1166 3.7 00:59:57 10° NW 01:04:05 76° SW 01:07:57 12° SE
Cosmos 1624 Rocket 4.2 00:59:12 10° S 01:04:19 53° ESE 01:09:32 10° NNE
Cosmos 614 Rocket 4.0 00:59:52 10° NNW 01:04:56 67° ENE 01:10:00 10° SSE
Resurs 01 Rocket 2.1 01:01:36 10° SE 01:05:51 47° ENE 01:10:08 10° N
Cosmos 2278 Rocket 2.8 01:00:49 10° SSE 01:05:54 35° ESE 01:11:00 10° NE
Cosmos 44 Rocket 3.6 01:01:45 10° NW 01:06:36 66° WSW 01:11:32 10° SSE
Cosmos 1140 Rocket 4.1 01:02:01 10° N 01:06:56 41° ENE 01:11:28 12° SE
STARLINK-1231 3.9 01:03:12 10° WSW 01:07:20 75° NW 01:11:29 10° NE
STARLINK-1087 1.6 01:05:37 10° NW 01:07:34 74° SW 01:08:54 17° SE
Cosmos 1782 Rocket 4.0 01:04:36 10° N 01:08:54 45° ENE 01:13:04 11° SSE
NOSS 3-1 (C) 4.1 01:03:38 10° SW 01:08:57 56° NW 01:15:06 10° NNE
STARLINK-1165 3.8 01:04:56 10° NW 01:09:03 69° SW 01:12:43 13° SE
H-2A R/B 3.6 01:05:18 10° SSW 01:09:48 34° W 01:14:26 10° NNW
Cosmos 1844 Rocket 4.0 01:05:10 10° SW 01:10:33 44° WNW 01:15:59 10° NNE
NOSS 3-1 (A) 3.3 01:05:48 10° SW 01:11:11 86° NW 01:17:24 10° NE
STARLINK-1232 4.0 01:08:12 10° WSW 01:12:19 68° NW 01:16:28 10° NE
Cosmos 1703 Rocket 3.5 01:08:25 10° S 01:12:44 82° E 01:17:05 10° N
STARLINK-1169 3.9 01:09:55 10° WNW 01:14:01 62° SW 01:17:30 14° SE
STARLINK-1224 4.5 01:11:19 10° S 01:14:50 27° SE 01:18:22 10° ENE
CREW DRAGON DEMO-1 DEB 2.8 01:12:47 10° NW 01:15:53 77° NE 01:18:11 16° ESE
STARLINK-1208 4.2 01:13:13 10° WSW 01:17:18 62° NW 01:21:26 10° NE
Meteor 1-19 Rocket 4.2 01:12:54 10° S 01:18:24 66° E 01:24:06 10° NNE
Cosmos 1371 Rocket 4.0 01:13:41 10° SSW 01:18:56 83° ESE 01:24:11 10° NNE
STARLINK-1178 4.0 01:14:56 10° WNW 01:19:00 56° SW 01:22:18 15° SSE
STARLINK-1225 4.4 01:16:08 10° SSW 01:19:46 30° SE 01:23:24 10° ENE
Cosmos 2034 Rocket 4.2 01:13:59 10° N 01:20:09 76° W 01:26:16 10° S
SJ-6B 4.4 01:18:33 10° SSW 01:21:56 31° W 01:25:18 10° NNW
NOSS 2-3 (C) 3.8 01:17:47 10° SW 01:21:59 76° NW 01:26:50 10° NNE
STARLINK-1271 4.3 01:18:13 10° WSW 01:22:17 57° NW 01:26:23 10° NE
Okean 2 Rocket 4.3 01:20:03 10° NNE 01:23:47 26° ENE 01:26:18 16° ESE
STARLINK-1120 4.1 01:19:56 10° WNW 01:23:56 50° SW 01:27:05 16° SSE
Cosmos 1544 3.3 01:20:54 10° N 01:24:28 50° E 01:27:03 17° SSE
STARLINK-1230 4.2 01:21:00 10° SSW 01:24:43 33° SE 01:28:27 10° ENE
Terra 4.0 01:23:39 10° E 01:25:25 12° ENE 01:27:12 10° NE
Cosmos 389 Rocket 3.6 01:23:08 10° SSW 01:26:26 44° WNW 01:29:48 10° N
SAR-Lupe-2 4.5 01:24:13 10° NE 01:27:25 30° E 01:29:20 18° SSE
Cosmos 1908 Rocket 4.1 01:23:10 10° NNW 01:27:33 60° W 01:31:55 10° S
STARLINK-1131 4.3 01:24:56 10° WNW 01:28:54 46° SW 01:31:51 16° SSE
NOSS 3 (A) 4.3 01:26:18 10° SSW 01:28:55 54° ESE 01:31:38 10° NE
STARLINK-1243 4.1 01:25:52 10° SSW 01:29:40 37° SE 01:33:30 10° ENE
Hubble Space Telescope 2.7 01:28:13 10° SW 01:30:25 14° S 01:31:25 13° S
STARLINK-1069 4.4 01:27:13 10° NW 01:31:12 44° NNE 01:34:20 15° E
Meteor 1-18 Rocket 4.3 01:25:57 10° SSW 01:31:31 81° W 01:37:11 10° N
BREEZE M DEB (TANK) 3.4 01:23:53 10° SW 01:33:28 65° SSE 01:36:34 10° ENE
STARLINK-1190 4.4 01:29:56 10° WNW 01:33:50 41° SW 01:36:37 17° SSE
Lacrosse 5 3.5 01:29:49 10° NNW 01:34:05 26° NNE 01:38:21 10° E
STARLINK-1236 4.0 01:30:46 10° SSW 01:34:39 40° SE 01:38:32 10° ENE
Spot 2 Rocket 3.9 01:31:07 17° SE 01:34:45 47° ENE 01:39:34 10° N
Iridium 51 4.2 01:32:02 10° S 01:36:10 80° E 01:39:58 10° N
STARLINK-1085 4.3 01:32:11 10° NW 01:36:13 48° NNE 01:39:08 17° ESE
Cosmos 1356 3.5 01:33:17 10° NNW 01:36:44 73° W 01:39:27 15° S
Cosmos 371 Rocket 4.0 01:34:23 15° SSE 01:37:41 34° ESE 01:42:03 10° NE
STARLINK-1086 4.1 01:37:08 10° NW 01:41:12 52° NNE 01:43:54 19° ESE
Cosmos 2279 Rocket 4.5 01:36:35 10° N 01:42:30 44° ENE 01:46:29 20° SE
Cosmos 676 Rocket 4.2 01:38:36 10° NNW 01:43:47 58° ENE 01:47:09 22° SE
MetOp-B 4.1 01:39:50 17° SSE 01:44:01 73° ENE 01:49:21 10° N
Cosmos 1023 Rocket 4.5 01:38:49 10° NNW 01:44:04 90° SE 01:47:56 19° SSE
STARLINK-1269 3.7 01:40:32 10° SSW 01:44:32 49° SE 01:48:32 10° ENE
STARLINK-1095 4.0 01:42:07 10° NW 01:46:12 56° NE 01:48:42 22° ESE
COSMOS 2406 3.2 01:40:29 10° NNW 01:46:18 79° ENE 01:50:16 21° SSE
Meteor 2-4 Rocket 3.5 01:41:47 10° S 01:47:08 71° E 01:52:28 10° NNE
Cosmos 2056 Rocket 3.9 01:42:18 10° SSW 01:47:22 64° WNW 01:52:27 10° NNE
TELKOM 3 4.5 01:45:56 10° W 01:47:41 22° SW 01:47:49 22° SSW
Cosmos 1743 4.3 01:44:31 10° NNW 01:47:57 32° W 01:51:22 10° SSW
IGS 5A 3.8 01:47:13 24° SE 01:49:23 50° ENE 01:53:25 10° N
STARLINK-1200 3.6 01:45:29 10° SW 01:49:31 55° SE 01:53:34 10° ENE
STARLINK-1077 3.9 01:47:04 10° NW 01:51:11 61° NE 01:53:29 25° ESE
STARLINK-1192 3.5 01:50:25 10° SW 01:54:29 61° SE 01:58:34 10° ENE
Okean 3 3.4 01:51:40 16° S 01:55:03 78° E 01:59:23 10° N
Meteor 1-13 Rocket 4.4 01:51:21 18° SSE 01:55:23 54° E 02:00:54 10° NNE
STARLINK-1075 3.8 01:52:02 10° NW 01:56:10 67° NE 01:58:15 28° ESE
GPS 2-04 Rocket1 3.9 01:53:46 10° SW 01:55:48 21° S 01:55:48 21° S
STARLINK-1244 3.5 01:55:21 10° SW 01:59:26 67° SE 02:03:34 10° NE
Cosmos 1634 Rocket 4.1 01:53:48 10° N 02:00:09 84° W 02:05:16 16° S
STARLINK-1093 3.7 01:57:01 10° NW 02:01:10 73° NE 02:03:03 31° ESE
Cosmos 1461 4.1 02:04:40 24° E 02:04:40 24° E 02:07:32 10° ENE
STARLINK-1138 3.5 02:00:17 10° SW 02:04:24 74° SE 02:08:32 10° NE
H-2A R/B 4.2 02:02:46 10° SSW 02:03:58 12° S 02:03:58 12° S
STARLINK-1074 3.6 02:01:59 10° NW 02:06:08 80° NE 02:07:49 35° ESE
GENESIS II 4.2 02:02:22 10° NNW 02:06:25 77° ENE 02:07:49 38° SE
STARLINK-1143 3.5 02:05:14 10° SW 02:09:22 81° SE 02:13:31 10° NE
SPOT 5 3.6 02:07:41 28° SE 02:09:59 45° ENE 02:15:01 10° N
ERBS 3.5 02:09:07 10° WSW 02:12:16 42° NW 02:15:27 10° NNE
STARLINK-1203 3.5 02:09:29 10° SW 02:13:40 89° SE 02:17:53 10° NE
STARLINK-1241 3.5 02:10:13 10° SW 02:14:20 89° SSE 02:18:30 10° NE
Cosmos 1300 Rocket 3.5 02:11:16 10° N 02:15:45 84° E 02:17:35 35° SSE
STARLINK-1088 3.5 02:11:56 10° NW 02:16:06 86° SW 02:17:23 43° SE
Landsat 7 3.8 02:15:16 28° S 02:17:45 79° WSW 02:22:33 10° NNW
Cosmos 1452 Rocket 3.4 02:13:28 14° SSW 02:18:04 84° ESE 02:23:23 10° NNE
Cosmos 2082 Rocket 2.5 02:13:26 10° NNW 02:19:05 56° ENE 02:21:36 32° SE
STARLINK-1239 3.6 02:15:11 10° SW 02:19:19 84° NW 02:23:29 10° NE
Cosmos 304 Rocket 4.2 02:20:05 37° SE 02:21:01 41° ESE 02:25:31 10° NNE
STARLINK-1115 3.5 02:16:55 10° NW 02:21:04 78° SW 02:22:10 47° SE
Cosmos 1420 Rocket 4.5 02:17:29 10° SSW 02:22:38 61° WNW 02:27:47 10° NNE
Cosmos 1833 Rocket 2.6 02:17:17 10° NNW 02:22:55 84° WSW 02:25:34 33° SSE
STARLINK-1240 3.7 02:20:11 10° SW 02:24:19 77° NW 02:28:28 10° NE
STARLINK-1076 3.6 02:21:54 10° NW 02:26:02 71° SW 02:26:56 51° SSE
CZ-4B DEB 4.3 02:28:02 63° SSW 02:28:27 76° WSW 02:31:49 10° NNW
STARLINK-1216 3.8 02:25:09 10° WSW 02:29:17 71° NW 02:33:25 10° NE
Cosmos 1674 Rocket 3.4 02:28:04 44° SSE 02:29:22 73° E 02:33:45 10° NNE
Cosmos 2369 Rocket 4.0 02:31:29 14° E 02:31:29 14° E 02:33:38 10° ENE
STARLINK-1092 3.7 02:26:52 10° WNW 02:30:59 65° SW 02:31:42 53° S
Cosmos 332 Rocket 3.7 02:28:28 26° SSW 02:31:16 85° ESE 02:36:12 10° NNE
Cosmos 1943 Rocket 3.5 02:33:19 22° E 02:33:19 22° E 02:37:02 10° NE
USA 245 4.2 02:33:12 28° SW 02:34:16 34° WSW 02:37:08 10° NW
STARLINK-1237 4.0 02:30:09 10° WSW 02:34:16 65° NW 02:38:24 10° NE
Cosmos 1378 Rocket 3.5 02:34:29 50° SSE 02:35:23 64° E 02:39:46 10° NNE
STARLINK-1080 3.7 02:31:55 10° WNW 02:36:00 58° SW 02:36:32 52° S
Cosmos 1066 Rocket 4.1 02:36:48 39° SSE 02:38:47 67° E 02:44:07 10° NNE
STARLINK-1202 4.1 02:35:11 10° WSW 02:39:16 59° NW 02:43:22 10° NE
ISS -2.5 02:36:51 10° NW 02:39:58 34° NNE 02:40:32 32° NE
Cosmos 1437 Rocket 2.8 02:39:15 48° SSW 02:40:09 71° W 02:43:57 10° N
STARLINK-1090 3.8 02:36:52 10° WNW 02:40:56 52° SW 02:41:17 50° SSW
Resurs 01 Rocket 4.1 02:39:53 10° SW 02:42:35 16° W 02:45:17 10° NW
EXPRESS MD2 3.5 02:40:18 10° WSW 02:43:29 81° NNW 02:49:46 10° ENE
ATLAS 3B CENTAUR R/B 3.9 02:36:23 10° SW 02:43:50 24° S 02:43:50 24° S
SPOT 1/Viking Rocket 4.0 02:42:36 30° SSW 02:44:58 53° W 02:50:01 10° NNW
STARLINK-1089 4.0 02:41:53 10° WNW 02:45:52 47° SW 02:46:03 47° SW
STARLINK-1109 4.5 02:44:11 10° NW 02:48:09 43° NNE 02:49:16 35° ENE
Cosmos 1975 Rocket 4.2 02:48:57 29° E 02:48:57 29° E 02:52:25 10° NNE
STARLINK-1246 4.5 02:45:13 10° WSW 02:49:14 50° NNW 02:53:17 10° NE
Cosmos 2278 Rocket 3.8 02:44:50 10° WSW 02:49:56 34° WNW 02:55:04 10° N
STARLINK-1107 4.2 02:46:54 10° WNW 02:50:50 43° SW 02:50:50 43° SW
Meteor 1-15 Rocket 4.3 02:45:45 10° N 02:51:44 84° E 02:53:45 44° SSE
SL-4 R/B 2.3 02:49:02 10° NW 02:51:20 42° WNW 02:51:20 42° WNW
STARLINK-1091 4.4 02:49:08 10° NW 02:53:08 46° NNE 02:54:02 39° ENE
Cosmos 972 Rocket 4.4 02:51:11 34° S 02:54:00 83° ESE 03:00:41 10° NNE
Cosmos 1741 Rocket 3.9 02:49:08 10° NNW 02:54:22 90° ENE 02:55:39 53° SSE
STARLINK-1066 4.4 02:51:57 10° WNW 02:55:39 38° SW 02:55:39 38° SW
STARLINK-1072 4.2 02:54:05 10° NW 02:58:08 50° NNE 02:58:48 45° ENE
Crew Dragon 3.6 02:57:13 10° NW 02:57:36 13° NNW 02:57:36 13° NNW
SeaSat 1 2.6 02:56:00 10° NE 03:00:45 50° ESE 03:00:45 50° ESE
ERS-1 Rocket 3.5 03:00:12 36° SSW 03:01:50 50° W 03:06:44 10° NNW
Terra 1.8 03:01:34 58° S 03:02:28 79° WSW 03:07:16 10° NNW
Cosmos 2026 Rocket 4.4 03:01:47 41° ESE 03:03:04 46° E 03:09:04 10° NNE
STARLINK-1096 4.0 02:59:04 10° NW 03:03:09 55° NE 03:03:36 51° ENE
BREEZE-M DEB (TANK) 4.3 02:44:26 10° WSW 03:04:25 73° NNW 03:08:59 10° NE
Cosmos 1766 3.8 03:02:14 10° N 03:05:44 48° ENE 03:05:44 48° ENE
NOSS 2-2 (E) 3.6 03:07:04 54° NE 03:07:04 54° NE 03:10:10 10° NE
Cosmos 1850 Rocket 4.2 03:01:42 10° NNW 03:07:01 67° WSW 03:08:14 51° SSW
STARLINK-1079 3.9 03:04:03 10° NW 03:08:09 60° NE 03:08:24 58° NE
Cosmos 1110 Rocket 3.9 03:09:30 49° SSW 03:10:57 85° WNW 03:16:10 10° NNE
Cosmos 1733 4.1 03:08:28 10° N 03:11:27 39° NE 03:11:27 39° NE
STARLINK-1116 3.8 03:09:00 10° NW 03:13:07 65° NE 03:13:10 65° NE
Okean 1 Rocket 3.2 03:09:20 10° NNW 03:13:46 64° W 03:14:11 60° SW
Nadezhda 4 Rocket 4.3 03:14:13 31° SSW 03:17:09 62° W 03:23:13 10° N
Lacrosse 5 1.8 03:12:26 10° NW 03:17:28 70° SW 03:17:49 67° SSW
STARLINK-1094 3.8 03:18:57 10° NW 03:22:45 70° NNW 03:22:45 70° NNW
Cosmos 1455 Rocket 3.8 03:20:12 10° N 03:23:58 42° ENE 03:23:58 42° ENE
STARLINK-1117 3.9 03:23:55 10° NW 03:27:31 65° NW 03:27:31 65° NW
NOSS 2-2 (C) 3.9 03:30:27 48° N 03:30:27 48° N 03:33:29 10° NNE
ATLAS 2AS CENTAUR R/B 3.7 03:30:08 34° ESE 03:30:27 34° ESE 03:37:25 10° NE
Aureole 2 Rocket 4.3 03:32:21 24° NW 03:32:21 24° NW 03:34:37 10° N
Cosmos 1331 Rocket 4.3 03:31:02 42° SW 03:32:31 60° WNW 03:37:38 10° NNE
STARLINK-1078 4.0 03:28:54 10° NW 03:32:19 59° NW 03:32:19 59° NW
STARLINK-1108 4.2 03:33:53 10° NW 03:37:05 52° WNW 03:37:05 52° WNW
Cosmos 1302 Rocket 3.8 03:38:22 77° SE 03:38:36 80° ESE 03:43:55 10° NNE
Cosmos 1378 4.5 03:38:54 35° WNW 03:38:54 35° WNW 03:42:07 10° N
NOSS 3-2 (A) 4.4 03:32:08 10° NNW 03:39:36 58° NE 03:43:28 33° ESE
SL-27 R/B 4.3 03:37:58 10° N 03:40:12 26° NE 03:40:12 26° NE
STARLINK-1071 4.4 03:38:52 10° NW 03:41:52 46° WNW 03:41:52 46° WNW
EO 1 Del DPAF 4.1 03:41:07 10° N 03:43:55 48° N 03:43:55 48° N
Cosmos 1470 4.0 03:44:17 10° N 03:46:57 35° NE 03:46:57 35° NE
USA 238 DEB 4.1 03:41:09 10° NNW 03:48:19 62° NE 03:51:05 39° ESE
USA 238 4.1 03:41:15 10° NNW 03:48:25 61° NE 03:51:13 39° ESE
ALOS 2 3.6 03:53:11 37° ENE 03:53:11 37° ENE 03:56:52 10° N
Meteor 1-22 Rocket 4.4 03:48:19 10° NNW 03:54:11 62° W 03:54:59 56° SW
Meteor 2-13 Rocket 4.5 03:57:48 58° SW 03:59:01 74° W 04:05:12 10° N
APEX 4.5 03:59:20 61° SE 03:59:41 62° ESE 04:05:30 10° NNE
Cosmos 1544 Rocket 4.0 03:56:08 10° N 03:59:43 59° N 03:59:43 59° N
Cosmos 2082 Rocket 3.9 03:58:36 10° NW 04:02:39 20° W 04:03:27 20° WSW
Cosmos 1417 Rocket 4.5 03:58:06 10° N 04:04:25 72° E 04:05:18 63° SE
Thor Agena Rocket 4.1 04:00:56 10° N 04:06:06 54° WNW 04:07:01 47° WSW
SL-8 R/B 4.3 04:03:21 10° NW 04:08:05 53° NNE 04:08:51 47° NE
Cosmos 1992 Rocket 4.4 04:08:52 52° ENE 04:08:52 52° ENE 04:13:17 10° NNE
Cosmos 1726 4.1 04:07:10 10° NNE 04:09:11 23° NE 04:09:11 23° NE
ATLAS CENTAUR R/B 3.8 04:13:51 15° ENE 04:13:51 15° ENE 04:14:45 10° ENE
Aureole 3 Rocket 4.2 04:07:31 10° N 04:13:25 82° W 04:14:58 59° S
Cosmos 2369 Rocket 2.2 04:13:14 65° WSW 04:13:55 73° WNW 04:19:36 10° NNE
Meteor 2-8 Rocket 4.4 04:09:14 10° N 04:15:21 69° E 04:16:00 64° ESE
Cosmos 1943 Rocket 2.8 04:14:48 40° WSW 04:16:11 50° WNW 04:21:38 10° NNE
FALCON 9 R/B 4.2 04:25:00 23° ESE 04:25:00 23° ESE 04:30:04 10° E
Cosmos 1242 Rocket 4.5 04:27:39 28° NW 04:27:39 28° NW 04:29:55 10° N
USA 215 3.2 04:25:17 53° ESE 04:27:03 85° NE 04:33:37 10° NW
BREEZE-M DEB (TANK) 3.5 04:21:43 10° WNW 04:30:37 72° NNE 04:30:37 72° NNE
S3M 3.8 04:26:30 10° N 04:32:41 86° W 04:33:15 75° S
Cosmos 292 Rocket 4.4 04:34:42 50° WNW 04:34:42 50° WNW 04:39:24 10° N
Cosmos 1655 Rocket 3.9 04:35:13 67° SW 04:35:57 76° W 04:42:13 10° N
SeaSat 1 4.4 04:34:07 10° N 04:38:00 24° NW 04:40:31 16° W
Cosmos 1271 Rocket 4.4 04:40:47 31° NW 04:40:47 31° NW 04:43:21 10° N
Helios 1A 3.8 04:42:08 49° N 04:42:08 49° N 04:45:20 10° N
NOSS 3-2 (C) 4.0 04:38:24 10° NW 04:46:09 88° NE 04:48:46 50° SE
Cosmos 1707 4.4 04:49:05 30° NW 04:49:05 30° NW 04:51:37 10° N
Cosmos 1553 Rocket 4.5 04:42:56 10° NNW 04:48:54 47° W 04:49:33 45° WSW
Meteor 2-5 Rocket 4.4 04:49:15 41° E 04:49:15 41° E 04:54:23 10° NNE
NOSS 3-4 (A) 3.2 04:52:00 73° WSW 04:52:35 83° NW 04:58:52 10° NNE
NOSS 3-4 (C) 3.2 04:52:07 74° WSW 04:52:40 84° NW 04:58:58 10° NNE
Helios 1B rocket 4.0 04:48:55 10° NNE 04:51:26 29° ENE 04:51:26 29° ENE
Cosmos 1503 Rocket 4.0 04:50:11 10° NNW 04:55:11 77° NW 04:55:11 77° NW
Cosmos 1656 Rocket 3.8 04:55:34 64° W 04:55:57 67° WNW 05:01:32 10° NNE
ATLAS 3B R/B 3.5 04:49:40 10° NNW 04:56:12 46° NE 05:00:19 23° ESE
Cosmos 1340 Rocket 4.0 04:52:50 10° N 04:55:32 41° NNW 04:55:32 41° NNW
Exosat Rocket 4.5 04:48:22 10° NNW 04:57:57 79° ENE 04:59:52 53° SE
CENTAUR R/B 3.1 04:49:53 10° NW 04:58:09 90° ENE 05:01:10 47° SSE
Cosmos 1953 3.7 04:54:31 10° NNW 04:57:00 34° NW 04:57:00 34° NW
Cosmos 968 Rocket 4.0 04:53:26 10° NNW 04:57:43 50° WNW 04:57:43 50° WNW
Cosmos 1674 4.3 05:02:07 33° NNE 05:02:07 33° NNE 05:04:19 10° N
In-Cosmos 22 4.2 05:04:34 62° WNW 05:04:34 62° WNW 05:09:46 10° N
Cosmos 1833 4.2 05:04:48 10° NNW 05:10:07 67° W 05:10:07 67° W
Cosmos 1354 Rocket 4.2 05:06:33 10° NNW 05:11:18 63° WNW 05:11:18 63° WNW
Cosmos 1726 Rocket 4.3 05:10:01 10° N 05:13:26 50° NNE 05:13:26 50° NNE
Cosmos 1867 3.5 05:10:05 10° NNW 05:15:34 77° ENE 05:15:45 76° E
Cosmos 2266 Rocket 4.4 05:17:31 45° W 05:18:18 47° WNW 05:24:09 10° N
ATLAS 2AS CENTAUR R/B 3.4 05:17:31 34° WSW 05:21:08 59° NW 05:29:00 10° NNE
SL-4 R/B 2.9 05:22:07 55° NW 05:22:18 56° NNW 05:27:03 10° NE
Cosmos 2297 Rocket 4.4 05:20:16 10° N 05:24:20 20° NE 05:28:23 10° E
Meteor 2-14 Rocket 4.4 05:25:34 66° SE 05:26:12 72° E 05:32:19 10° NNE
Cosmos 1244 Rocket 4.3 05:27:54 69° SSE 05:28:39 81° E 05:34:52 10° N
BREEZE-M R/B 3.9 05:30:04 47° E 05:30:04 47° E 05:32:39 10° ENE
COSMOS 2455 3.0 05:28:13 56° WSW 05:29:10 64° WNW 05:35:10 10° NNE
Timation 2 Rocket 4.5 05:23:34 10° NNW 05:29:45 54° ENE 05:32:00 36° ESE
Cosmos 2098 Rocket 4.3 05:29:07 54° SW 05:30:22 63° W 05:37:43 10° N
Cosmos 1809 Rocket 4.3 05:31:04 71° SSW 05:31:44 83° W 05:37:58 10° N
Cosmos 2228 3.9 05:27:39 10° NNW 05:30:44 44° NNW 05:30:44 44° NNW
SL-16 R/B 4.1 05:28:38 14° ESE 05:32:43 28° ENE 05:37:49 10° N
Cosmos 921 Rocket 3.8 05:37:25 47° NE 05:37:25 47° NE 05:40:44 10° NNE
SJ 16-02 4.0 05:35:23 10° NNE 05:37:50 14° ENE 05:40:17 10° E
CZ-4 R/B 4.1 05:35:05 10° N 05:39:34 58° WNW 05:39:34 58° WNW
Cosmos 2058 Rocket 3.4 05:39:36 10° N 05:43:24 65° N 05:43:24 65° N
ATLAS CENTAUR R/B 2.7 05:50:00 35° NW 05:50:00 35° NW 05:53:52 10° NNE
CZ-2D R/B 3.3 05:45:54 10° NE 05:50:26 29° E 05:51:15 28° ESE
Resurs 1-4 Rocket 3.2 05:48:06 10° NNE 05:52:49 32° E 05:53:41 30° ESE
Cosmos 1626 Rocket 4.1 05:54:16 51° ENE 05:54:16 51° ENE 05:58:05 10° NNE
Cosmos 220 Rocket 4.3 05:55:58 65° NE 05:55:58 65° NE 05:59:51 10° NNE
Okean 1-7 Rocket 4.1 05:57:24 52° NW 05:57:24 52° NW 06:01:19 10° N
Cosmos 1697 Rocket 4.4 05:57:02 19° ESE 05:58:17 21° E 06:02:23 10° NE
Cosmos 2227 Rocket 3.8 05:55:38 10° N 06:00:40 31° ENE 06:05:40 10° ESE
RESURS DK-1 3.1 06:03:12 47° NW 06:03:12 47° NW 06:06:44 10° NNE
GEOS 3 Rocket 3.7 06:01:42 43° ESE 06:03:25 73° NE 06:08:41 10° NNW
SL-08 R/B 4.4 06:02:41 60° SSW 06:03:53 77° W 06:10:15 10° N
Cosmos 1626 3.6 06:09:01 31° NW 06:09:01 31° NW 06:11:27 10° N
CZ-4C R/B 4.2 06:09:11 44° E 06:09:41 46° ENE 06:13:51 10° N
Meteor 1-24 Rocket 3.9 06:09:34 49° W 06:09:58 50° WNW 06:15:13 10° N
NPP 4.4 06:08:05 10° NNE 06:13:11 42° E 06:14:28 36° SE
Cosmos 1656 4.0 06:12:40 47° SE 06:13:36 53° ESE 06:19:04 10° NNE
Cosmos 1300 3.9 06:10:22 10° NNW 06:12:53 37° NW 06:12:53 37° NW
STARLINK-1372 4.5 06:15:43 39° NE 06:15:43 39° NE 06:18:06 10° NE
SL-19 R/B 4.3 06:09:56 10° N 06:15:22 69° WNW 06:16:20 57° SW
Meteor 2-16 Rocket 4.5 06:14:46 55° SW 06:15:56 66° W 06:22:02 10° N
STARLINK-1378 4.4 06:18:13 42° NE 06:18:13 42° NE 06:20:43 10° NE
Meteor 2-10 Rocket 4.5 06:12:57 10° N 06:17:57 41° ENE 06:20:12 27° SE
Cosmos 1356 Rocket 3.5 06:14:12 10° N 06:18:03 75° N 06:18:03 75° N
Cosmos 1386 Rocket 4.3 06:17:38 57° SSW 06:19:00 87° W 06:25:11 10° N
STARLINK-1329 4.3 06:20:03 44° NE 06:20:03 44° NE 06:22:39 10° NE
Cosmos 1812 Rocket 4.0 06:14:43 10° N 06:19:08 56° E 06:19:41 52° ESE
STARLINK-1379 4.3 06:20:45 45° NE 06:20:45 45° NE 06:23:21 10° NE
STARLINK-1365 4.2 06:22:15 48° NE 06:22:15 48° NE 06:24:59 10° NE
STARLINK-1362 4.2 06:22:39 47° NE 06:22:39 47° NE 06:25:20 10° NE
Cosmos 1709 Rocket 4.2 06:21:34 40° SSE 06:23:38 60° E 06:29:38 10° NNE
STARLINK-1373 4.1 06:24:57 50° NE 06:24:57 50° NE 06:27:44 10° NE
STARLINK-1390 4.0 06:27:13 52° NNE 06:27:13 52° NNE 06:30:05 10° NE
CZ-4C R/B 2.7 06:25:54 36° SE 06:26:33 37° ESE 06:31:37 10° NE
Cosmos 1602 Rocket 3.4 06:27:39 82° WNW 06:27:39 82° WNW 06:31:56 10° N
Helios 1B rocket 4.4 06:24:58 10° NNW 06:27:45 18° WNW 06:27:46 18° WNW
STARLINK-1346 4.5 06:32:03 35° NNE 06:32:03 35° NNE 06:34:11 10° NE
STARLINK-1354 4.5 06:32:44 35° NNE 06:32:44 35° NNE 06:34:49 10° NE
STARLINK-1347 4.5 06:33:04 35° NNE 06:33:04 35° NNE 06:35:10 10° NE
STARLINK-1357 4.5 06:33:23 35° NNE 06:33:23 35° NNE 06:35:30 10° NE
STARLINK-1335 4.5 06:33:45 35° NNE 06:33:45 35° NNE 06:35:52 10° NE
STARLINK-1327 4.5 06:34:03 35° NNE 06:34:03 35° NNE 06:36:11 10° NE
Cosmos-2242 4.5 06:29:35 10° NNE 06:33:26 32° ENE 06:35:15 23° ESE
STARLINK-1340 4.4 06:34:22 35° NNE 06:34:22 35° NNE 06:36:31 10° NE
STARLINK-1356 4.4 06:34:41 35° NNE 06:34:41 35° NNE 06:36:50 10° NE
STARLINK-1345 4.4 06:35:01 36° NNE 06:35:01 36° NNE 06:37:11 10° NE
STARLINK-1355 4.4 06:35:20 36° NNE 06:35:20 36° NNE 06:37:31 10° NE
STARLINK-1321 4.4 06:35:41 36° NNE 06:35:41 36° NNE 06:37:52 10° NE
STARLINK-1358 4.4 06:36:00 36° NNE 06:36:00 36° NNE 06:38:11 10° NE
STARLINK-1332 4.4 06:36:21 36° NNE 06:36:21 36° NNE 06:38:34 10° NE
STARLINK-1348 4.4 06:36:39 36° NNE 06:36:39 36° NNE 06:38:52 10° NE
STARLINK-1330 4.4 06:36:58 36° N 06:36:58 36° N 06:39:12 10° NE
STARLINK-1363 4.4 06:37:19 36° N 06:37:19 36° N 06:39:34 10° NE
STARLINK-1337 4.4 06:37:38 36° N 06:37:38 36° N 06:39:53 10° NE
STARLINK-1342 4.4 06:37:56 36° N 06:37:56 36° N 06:40:11 10° NE
STARLINK-1364 4.4 06:38:16 36° N 06:38:16 36° N 06:40:33 10° NE
STARLINK-1376 4.3 06:38:36 36° N 06:38:36 36° N 06:40:54 10° NE
Cosmos 2369 4.5 06:36:08 33° SSE 06:37:54 42° ESE 06:43:13 10° NE
STARLINK-1360 4.3 06:38:56 37° N 06:38:56 37° N 06:41:14 10° NE
STARLINK-1361 4.3 06:39:15 37° N 06:39:15 37° N 06:41:33 10° NE
STARLINK-1367 4.3 06:39:31 37° N 06:39:31 37° N 06:41:54 10° NE
STARLINK-1366 4.3 06:39:55 37° N 06:39:55 37° N 06:42:15 10° NE
Meteor 1-21 Rocket 4.1 06:42:12 50° S 06:43:46 89° W 06:49:28 10° N
Cosmos 1763 Rocket 3.5 06:44:29 50° S 06:45:43 70° ESE 06:50:48 10° NNE
Nadezhda 1 Rocket 4.2 06:40:46 10° NNW 06:46:45 54° W 06:48:24 42° SW
ATLAS 3B R/B 3.2 06:40:33 10° NW 06:46:47 38° WSW 06:47:29 37° SW
IKONOS-2 4.4 06:46:24 68° S 06:46:56 87° W 06:51:14 10° NNW
CENTAUR R/B 4.4 06:42:08 10° WNW 06:48:11 22° WSW 06:48:18 22° WSW
IRS-1D 4.2 06:43:17 10° NNE 06:48:28 50° E 06:50:36 32° SSE
Lacrosse 4 Rocket 3.9 06:46:18 10° N 06:49:43 22° NE 06:53:03 10° ESE
UNK 3.6 06:49:10 59° S 06:49:58 77° WSW 06:54:36 10° NNW
GP-B 3.4 06:45:58 10° N 06:50:22 61° E 06:51:38 42° SSE
Cosmos 1980 Rocket 3.5 06:48:47 21° SSE 06:51:27 30° ESE 06:56:18 10° NE
Cosmos 1328 4.1 06:52:53 51° SE 06:53:32 59° E 06:57:28 10° NNE
STARLINK-1219 4.5 06:49:58 10° NW 06:54:02 50° NNE 06:58:03 10° ESE
Cosmos 1455 2.0 06:51:33 10° N 06:55:18 83° E 06:55:32 77° SE
Cosmos 2219 3.1 06:51:19 10° NNW 06:56:56 67° WSW 06:59:00 39° S
STARLINK-1211 4.3 06:54:57 10° NW 06:59:02 54° NE 07:03:05 10° ESE
MOZ.5/SAFIR/RUBIN 5/SL-8 4.1 06:59:56 43° WSW 07:00:08 43° W 07:04:33 10° NNW
SL-4 R/B 4.5 06:58:53 10° WNW 07:02:49 24° N 07:06:40 10° NE
STARLINK-1245 4.2 06:59:55 10° NW 07:04:01 59° NE 07:08:06 10° ESE
ATLAS CENTAUR R/B 2.3 07:02:00 10° NW 07:05:11 79° NE 07:12:55 10° SE
Cosmos 1758 Rocket 3.5 07:05:35 54° SW 07:06:22 66° W 07:10:42 10° N
Cosmos 2297 Rocket 2.1 07:03:18 10° NNW 07:08:54 66° WSW 07:11:45 29° S
STARLINK-1233 4.0 07:04:52 10° NW 07:09:00 64° NE 07:13:06 10° ESE
BREEZE-M DEB (TANK) 3.2 07:12:10 33° N 07:12:10 33° N 07:14:02 10° NE
STARLINK-1204 3.8 07:09:51 10° NW 07:14:00 70° NE 07:18:07 10° ESE
ARIANE 5 R/B 3.5 07:09:39 10° NNE 07:14:23 39° E 07:17:45 17° SSE
Cosmos 2082 3.9 07:08:57 10° NNW 07:14:36 69° ENE 07:20:12 10° SSE
BREEZE-M DEB (TANK) 3.7 07:12:54 33° S 07:14:37 49° SE 07:26:29 10° ENE
AQUA 3.9 07:10:19 10° N 07:15:01 62° WNW 07:16:34 40° SW
SL-16 R/B 2.8 07:13:42 33° SSW 07:16:01 48° W 07:21:58 10° NNW
SJ 16-02 1.4 07:12:27 10° NNW 07:16:47 56° WSW 07:17:47 44° SSW
Cosmos 2278 3.9 07:15:36 29° S 07:18:28 64° ESE 07:24:03 10° NNE
Cosmos 468 Rocket 4.4 07:16:46 35° WSW 07:18:31 49° WNW 07:23:30 10° N
STARLINK-1238 3.7 07:14:50 10° NW 07:18:59 77° NE 07:23:07 10° SE
CRYOSAT 2 4.5 07:14:40 10° N 07:19:36 75° E 07:22:17 27° S
Cosmos 1898 Rocket 3.4 07:14:23 10° NNW 07:19:41 70° WSW 07:22:50 25° S
Cosmos 2184 Rocket 4.3 07:15:39 19° SSE 07:20:04 63° E 07:26:09 10° NNE
ADEOS II 2.1 07:16:03 10° NNE 07:21:19 78° ESE 07:24:11 28° S
Cosmos 1953 Rocket 3.5 07:21:23 39° SSW 07:23:03 81° W 07:27:31 10° N
STARLINK-1201 3.6 07:19:49 10° NW 07:23:59 84° NE 07:28:07 10° SE
Cosmos 1937 Rocket 3.4 07:21:07 10° NNW 07:26:24 85° WSW 07:31:08 13° SSE
IRS-P3 4.1 07:23:20 10° NNE 07:28:41 83° ESE 07:31:49 26° S
STARLINK-1206 3.5 07:24:47 10° NW 07:28:56 89° SW 07:33:04 10° SE
Cosmos 1570 Rocket 4.0 07:26:49 32° SSW 07:29:20 77° WNW 07:34:40 10° NNE
Cosmos 1703 3.8 07:29:00 37° WSW 07:29:48 42° WNW 07:33:35 10° N
CZ-2D R/B 3.0 07:25:48 10° N 07:30:28 34° WNW 07:32:35 24° WSW
Cosmos 1400 Rocket 3.2 07:27:06 10° N 07:31:13 64° E 07:34:36 15° SSE
Resurs 1-4 Rocket 3.1 07:27:55 10° N 07:32:34 32° WNW 07:34:47 23° WSW
Meteor 1-11 4.2 07:29:36 25° S 07:33:00 89° W 07:38:38 10° N
STARLINK-1205 3.5 07:29:46 10° NW 07:33:55 82° SW 07:38:03 10° SE
Cosmos 2181 Rocket 4.1 07:28:18 10° NNW 07:34:37 61° W 07:38:57 21° SSW
Cosmos 2208 Rocket 4.0 07:32:31 29° SSW 07:35:14 83° WNW 07:40:34 10° NNE
STARLINK-43 3.5 07:36:02 40° SSW 07:37:06 59° SE 07:40:44 10° ENE
STARLINK-1218 3.5 07:34:44 10° NW 07:38:52 74° SW 07:43:00 10° SE
Cosmos 1814 Rocket 4.0 07:38:34 26° SSW 07:41:38 82° WNW 07:46:59 10° NNE
Cosmos 1697 Rocket 3.0 07:38:46 26° SW 07:41:47 54° WNW 07:47:21 10° NNE
IDEFIX/ARIANE 42P 3.8 07:37:48 10° NNE 07:42:42 38° E 07:47:34 10° SSE
STARLINK-1254 3.5 07:39:44 10° NW 07:43:51 67° SW 07:47:57 10° SE
Cosmos 2227 Rocket 2.7 07:39:33 10° NW 07:44:45 38° WSW 07:47:50 22° SSW
SL-08 R/B 3.2 07:41:14 11° SSE 07:45:45 88° WSW 07:50:25 10° NNW
CZ-2C R/B 4.4 07:43:30 10° NE 07:46:47 30° E 07:50:06 10° SSE
BREEZE-M DEB (TANK) 4.2 07:46:18 10° NNW 07:47:39 14° N 07:49:09 10° NE
STARLINK-1231 3.5 07:44:43 10° WNW 07:48:49 61° SW 07:52:53 10° SE
Cosmos 540 Rocket 3.6 07:46:55 25° SW 07:49:50 62° WNW 07:54:56 10° NNE
SL-16 R/B 3.9 07:47:13 10° SSE 07:51:57 28° ESE 07:56:42 10° NE
Cosmos 2154 Rocket 4.2 07:46:20 11° S 07:52:27 73° E 07:58:41 10° NNE
STARLINK-1232 3.6 07:49:44 10° WNW 07:53:48 55° SW 07:57:50 10° SE
Cosmos 1315 Rocket 4.2 07:50:23 10° N 07:54:04 39° ENE 07:57:44 10° SSE
CZ-2D R/B 3.8 07:49:57 10° NNE 07:54:05 65° E 07:57:34 15° S
COBE Rocket 4.0 07:51:28 10° SSE 07:56:23 86° ENE 08:01:29 10° N
STARLINK-1208 3.7 07:54:44 10° WNW 07:58:45 50° SW 08:02:45 10° SSE
Iridium 2 3.6 07:55:22 10° N 07:59:09 86° W 08:02:25 13° S
ERS-2 2.1 07:55:31 10° SSE 07:59:10 87° ENE 08:02:51 10° NNW
IRIDIUM 103 4.5 07:58:07 10° S 08:03:18 77° E 08:08:32 10° N
CZ-4C R/B 3.8 08:00:04 10° SSE 08:03:34 55° ENE 08:07:08 10° N
BREEZE-M DEB (TANK) 1.1 08:01:26 10° NW 08:03:36 77° NNE 08:06:04 10° ESE
STARLINK-1271 3.8 07:59:44 10° WNW 08:03:42 45° SW 08:07:38 10° SSE
Cosmos 2285 Rocket 4.3 08:01:36 10° NNW 08:07:38 47° WSW 08:13:36 10° S
STARLINK-1154 4.0 08:04:45 10° WNW 08:08:39 41° SW 08:12:32 10° SSE
Cosmos 372 Rocket 3.9 08:04:32 10° NNW 08:09:41 79° WSW 08:14:49 10° SSE
Cosmos 841 Rocket 4.3 08:07:29 18° WSW 08:10:54 38° WNW 08:15:46 10° N
Cosmos 2221 2.5 08:08:49 10° N 08:13:10 88° E 08:17:31 10° S
STARLINK-1197 4.1 08:09:46 10° WNW 08:13:36 37° SW 08:17:24 10° SSE
CZ-4C R/B 3.3 08:11:04 13° WSW 08:15:03 33° NW 08:20:22 10° NNE
STARLINK-42 3.6 08:13:40 19° SSW 08:15:38 46° SE 08:18:43 10° ENE
STARLINK-1198 4.2 08:14:50 10° WNW 08:18:34 33° SW 08:22:18 10° SSE
Uosat 12 SS-18 rocket 4.0 08:14:30 10° NW 08:18:47 74° WSW 08:23:28 10° SSE
STARLINK-1301 4.2 08:16:27 15° SSW 08:18:52 36° SE 08:22:03 10° ENE
STARLINK-1316 4.2 08:17:22 15° SSW 08:19:28 31° SE 08:22:16 10° ENE
STARLINK-1311 3.9 08:17:38 16° SSW 08:19:34 34° SE 08:22:19 10° ENE
STARLINK-1257 4.1 08:18:14 15° SSW 08:20:22 32° SE 08:23:12 10° ENE
STARLINK-1256 4.1 08:19:06 15° SSW 08:21:16 32° SE 08:24:07 10° ENE
IRIDIUM 106 4.3 08:16:24 10° S 08:21:36 72° W 08:26:50 10° N
STARLINK-1307 4.3 08:19:20 14° SSW 08:21:55 34° SE 08:25:06 10° ENE
STARLINK-1213 4.1 08:19:58 14° SSW 08:22:10 33° SE 08:25:01 10° ENE
STARLINK-1263 4.0 08:20:50 14° SSW 08:23:03 34° SE 08:25:56 10° ENE
Meteor 1-27 4.4 08:18:03 10° NNW 08:23:25 50° W 08:28:45 10° SSW
STARLINK-1199 4.4 08:19:51 10° WNW 08:23:30 30° SW 08:27:08 10° SSE
STARLINK-1290 4.2 08:21:03 14° SSW 08:23:37 35° SE 08:26:46 10° ENE
STARLINK-1259 4.0 08:21:43 14° SSW 08:24:00 35° SE 08:26:52 10° ENE
STARLINK 1040 3.3 08:22:42 17° W 08:24:24 39° NW 08:26:52 10° NE
STARLINK-1265 4.0 08:22:10 14° SSW 08:24:28 35° SE 08:27:22 10° ENE
STARLINK-1285 4.0 08:22:34 14° SSW 08:24:52 35° SE 08:27:45 10° ENE
Cosmos 2058 2.9 08:20:42 10° S 08:24:52 87° ESE 08:29:06 10° N
USA 234 3.7 08:18:40 10° NE 08:25:06 56° SE 08:31:29 10° SSW
STARLINK-1269 4.2 08:21:50 10° NW 08:25:58 62° NE 08:30:03 10° ESE
STARLINK-1297 4.1 08:23:33 13° SSW 08:26:13 37° SE 08:29:23 10° ENE
STARLINK-1268 3.9 08:24:01 14° SSW 08:26:20 36° SE 08:29:14 10° ENE
STARLINK-1296 3.9 08:24:19 14° SSW 08:26:41 37° SE 08:29:36 10° ENE
STARLINK-1260 3.8 08:25:11 14° SSW 08:27:35 38° SE 08:30:31 10° ENE
Cosmos 2360 Rocket 4.3 08:23:38 10° SSE 08:27:58 24° E 08:32:20 10° NE
STARLINK-1210 4.5 08:24:55 10° WNW 08:28:27 27° SW 08:31:59 10° S
STARLINK-1318 3.8 08:26:04 14° SSW 08:28:28 39° SE 08:31:25 10° ENE
Lacrosse 4 Rocket 2.0 08:24:34 10° NW 08:28:31 36° WSW 08:32:20 10° S
Nadezhda 3 Rocket 4.0 08:22:27 10° NNW 08:28:42 68° W 08:34:58 10° S
STARLINK-1275 3.8 08:26:53 13° SSW 08:29:20 40° SE 08:32:18 10° ENE
STARLINK-62 4.5 08:27:05 11° SSW 08:29:45 28° SE 08:32:31 10° ENE
STARLINK-26 3.1 08:27:13 15° SW 08:29:57 84° SE 08:33:24 10° NE
STARLINK-1309 3.7 08:27:47 13° SSW 08:30:15 41° SE 08:33:13 10° ENE
STARLINK-1200 4.0 08:26:50 10° NW 08:30:58 68° NE 08:35:05 10° ESE
Meteor 1-28 Rocket 3.8 08:27:33 10° SSW 08:31:03 35° W 08:34:32 10° NNW
STARLINK-1282 3.7 08:28:38 13° SSW 08:31:08 41° SE 08:34:06 10° ENE
STARLINK-34 4.4 08:28:55 10° SSW 08:31:38 29° SE 08:34:27 10° ENE
STARLINK-1313 3.4 08:29:41 14° SSW 08:32:12 50° SE 08:35:14 10° ENE
STARLINK-55 2.9 08:29:57 15° SW 08:32:31 86° SE 08:35:43 10° NE
STARLINK-1279 3.4 08:30:36 13° SSW 08:33:09 51° SE 08:36:12 10° ENE
STARLINK-1298 3.6 08:31:14 13° SSW 08:33:51 44° SE 08:36:50 10° ENE
MSX 4.0 08:28:11 10° NNE 08:33:58 78° ESE 08:39:43 10° S
STARLINK-1293 3.5 08:32:08 12° SSW 08:34:46 46° SE 08:37:47 10° ENE
Cosmos 1980 Rocket 3.0 08:30:34 12° SW 08:35:18 37° WNW 08:40:32 10° N
STARLINK-1192 3.9 08:31:49 10° NW 08:35:57 74° NE 08:40:06 10° ESE
STARLINK-1255 3.5 08:33:49 12° SSW 08:36:31 48° SE 08:39:32 10° ENE
Cosmos 2084 Rocket 3.9 08:35:44 10° NNW 08:40:13 72° NE 08:44:43 10° SE
STARLINK-1244 3.7 08:36:47 10° NW 08:40:56 81° NE 08:45:04 10° SE
Cosmos 1892 2.8 08:37:40 10° SSW 08:41:28 61° W 08:45:16 10° N
Cosmos 2341 Rocket 4.1 08:35:32 10° S 08:41:55 84° W 08:48:20 10° N
ERBS 3.4 08:38:50 10° NW 08:42:05 48° NE 08:45:21 10° ESE
CZ-4B R/B 2.6 08:39:16 10° SE 08:42:09 40° ENE 08:45:03 10° N
STARLINK-1317 3.4 08:39:26 11° SW 08:42:46 65° SE 08:46:14 10° ENE
STARLINK-28 3.1 08:39:50 11° WSW 08:42:48 68° NW 08:45:59 10° NE
NOSS 2-1 (C) 3.2 08:39:23 10° SSW 08:42:48 64° ESE 08:46:14 10° NE
H-2A R/B 2.6 08:39:08 10° S 08:43:10 40° W 08:47:20 10° NNW
SAR-Lupe-4 3.7 08:42:19 10° SSE 08:45:53 83° ENE 08:49:30 10° NNW
STARLINK-1138 3.6 08:41:44 10° NW 08:45:54 88° NE 08:50:02 10° SE
NOSS 2-1 (D) 3.0 08:43:50 10° SSW 08:47:16 74° ESE 08:50:44 10° NE
deb Chang Zheng 4 3.7 08:43:05 10° NNE 08:47:24 80° ESE 08:51:41 10° S
STARLINK-41 2.9 08:44:31 10° SW 08:47:37 84° NW 08:50:46 10° NE
Cosmos 2150 Rocket 4.3 08:43:59 10° NNW 08:48:54 45° WSW 08:53:45 10° S
STARLINK-1291 3.2 08:46:33 10° SW 08:49:50 70° SE 08:53:07 10° NE
STARLINK-1143 3.6 08:46:43 10° NW 08:50:52 84° SW 08:55:00 10° SE
STARLINK-1264 3.1 08:48:59 10° SW 08:52:17 74° SE 08:55:36 10° NE
ARIANE 5 R/B 3.8 08:49:14 10° NNW 08:53:15 24° WNW 08:57:12 10° WSW
STARLINK-1267 3.1 08:50:45 10° SW 08:54:04 77° SE 08:57:23 10° NE
STARLINK-1241 3.6 08:51:43 10° NW 08:55:51 77° SW 08:59:59 10° SE
STARLINK-1203 3.6 08:51:53 10° NW 08:56:05 76° SW 09:00:16 10° SE
